Torna al catalogo

BREEZE-M DEB

TANK

AttivoHEO
NORAD 28395·DEBRIS·🇷🇺 Russia

Lanciato Aug 4, 2004 da Baikonur Cosmodrome

Loading…

Prossimi Passaggi (prossime 24 ore)

TLE

AggiornatoSource: Space-Track

Epoca: Sep 14, 2026, 06:25 UTC

1 28395U 04031C   26257.26801793  .00008145  00000-0  11466-2 0  9991
2 28395  49.4439   9.5839 5137143 134.3312 281.5094  5.40825962409516

Traccia BREEZE-M DEB in tempo reale con AllMySat

Download on the App Store